Wind_Speed
2 2 3 3 3 4 3 3 2 2 1 1 1 1 2 2 2 3 3 3 3 3 3 3 3 4 4 4 4 5 5 5 5 5 5 6 6 6 7 7 7 7 8
2 2 2 3 3 3 3 2 1 1 1 1 1 1 1 2 2 2 3 3 3 3 3 3 3 3 3 3 4 4 4 4 4 5 5 5 5 6 6 6 7 7 7
1 2 3 3 3 3 3 2 1 1 1 1 1 1 1 2 2 2 2 3 2 2 2 2 2 3 3 3 3 3 4 4 4 4 4 4 5 5 6 6 6 7 7
1 2 3 4 4 4 3 2 1 1 1 2 1 1 1 2 2 2 2 2 2 2 2 2 2 2 2 2 3 3 3 3 4 4 3 3 4 4 5 5 5 6 6
2 3 4 4 4 4 4 3 2 2 1 2 2 2 2 2 2 2 2 2 2 2 2 2 2 2 2 2 2 2 2 3 3 3 3 3 4 4 4 4 5 6 6
2 3 5 5 5 5 5 4 3 2 2 2 2 2 2 2 2 2 2 2 2 2 2 2 2 2 2 2 1 1 1 2 2 2 3 3 3 3 4 4 4 5 5
2 3 5 6 6 7 6 5 4 3 2 2 2 2 2 3 3 3 2 2 2 2 2 2 3 2 2 2 2 1 1 1 1 2 2 2 2 2 3 3 3 4 5
2 3 5 7 8 8 8 7 6 4 3 3 3 2 2 3 3 3 3 2 2 3 3 3 3 3 3 2 2 2 1 1 1 2 2 2 2 2 2 2 3 3 4
4 5 6 7 8 9 8 8 7 6 5 4 3 3 2 3 4 4 3 3 3 3 3 3 3 3 3 2 1 1 1 1 1 1 1 2 2 2 2 2 3 3 3
5 6 6 7 9 9 9 9 8 7 6 5 4 3 3 3 4 4 4 3 3 3 3 3 3 3 2 2 1 1 1 1 1 1 1 1 1 1 2 2 3 3 2
6 6 6 8 10 10 10 10 10 8 7 6 6 4 4 3 4 4 4 4 3 3 3 3 3 3 2 2 1 2 1 0 1 1 1 1 1 1 2 3 3 3 2
6 6 7 8 10 11 11 11 11 10 9 8 7 6 4 4 4 4 4 4 3 3 3 3 3 3 2 2 1 1 1 0 1 0 0 1 1 1 2 3 3 3 2
7 7 8 9 10 11 12 12 12 12 11 10 9 7 6 5 4 4 4 3 3 2 2 2 3 3 3 2 1 2 1 0 1 1 0 0 0 1 2 2 2 2 2
7 7 8 9 10 11 12 12 13 12 12 11 10 9 8 6 5 5 4 4 4 3 2 3 3 2 3 2 1 1 2 1 1 1 1 0 0 1 1 1 2 2 2
7 8 9 8 9 10 11 12 13 14 13 12 11 11 10 8 7 6 5 4 4 4 3 2 2 2 3 2 1 1 1 1 1 1 1 1 1 1 1 2 2 2 3
6 8 9 9 10 11 11 12 14 14 14 13 12 12 11 10 8 7 6 5 5 4 3 3 3 3 3 2 2 1 1 1 1 1 0 1 1 1 1 2 2 2 3
6 7 8 10 10 12 12 12 13 15 15 14 13 13 13 11 10 8 7 6 5 5 4 3 3 3 2 1 1 1 1 1 0 0 0 1 1 1 2 2 3 3 2
7 8 9 10 11 12 12 12 13 15 15 15 14 15 14 13 11 10 9 7 6 6 5 4 3 3 2 1 1 0 0 0 1 0 0 1 1 1 2 2 3 3 2
8 8 9 10 11 11 12 12 12 13 15 15 15 15 16 14 13 11 9 8 8 7 6 5 4 4 2 2 2 1 1 1 1 1 1 1 1 2 2 3 3 3 2
9 9 9 10 12 12 13 13 13 13 14 15 15 16 16 16 14 12 11 10 9 8 7 6 5 5 4 3 3 2 2 2 2 2 2 2 1 2 2 3 3 3 3
10 10 10 11 12 12 13 13 13 13 13 14 16 16 17 17 15 14 13 12 10 9 8 7 6 5 5 4 4 3 3 3 3 3 2 2 2 2 2 3 3 3 2
11 11 12 13 13 13 14 15 14 14 14 14 16 17 17 17 16 15 14 13 12 11 9 8 7 7 6 5 5 5 4 4 3 3 3 2 2 2 2 2 3 3 2
12 12 11 12 13 14 15 15 14 14 14 15 15 16 17 17 17 16 16 14 13 12 11 10 9 8 7 6 6 6 5 5 4 3 3 2 2 2 2 2 2 2 2
11 11 11 12 12 14 14 15 15 15 16 16 17 18 18 18 17 17 16 16 15 14 13 11 10 9 8 7 7 7 7 6 5 5 4 4 4 4 4 3 3 3 2
11 10 11 11 12 13 14 15 15 15 16 18 19 19 19 18 18 17 16 16 16 15 14 13 12 11 10 9 8 8 8 8 7 7 6 6 6 6 6 5 5 5 5
9 9 10 11 11 12 13 14 15 16 16 17 19 19 19 19 18 18 17 17 17 17 16 15 14 13 12 11 10 10 10 10 9 9 8 8 8 8 8 8 8 8 8
Wind_Direction
156 158 154 150 148 135 121 101 82 67 52 53 56 64 58 48 48 58 59 58 61 68 71 70 74 80 77 78 82 85 85 84 87 86 84 84 83 82 85 84 85 84 84
185 187 180 169 157 150 136 113 82 40 22 18 28 28 23 24 32 41 43 44 45 53 58 59 65 73 75 77 83 83 84 86 92 92 87 86 87 87 89 88 85 84 86
218 210 198 184 177 167 156 144 126 355 345 339 346 346 355 11 15 21 26 31 36 42 44 46 55 64 71 76 79 80 82 86 88 89 84 89 91 92 91 88 85 86 86
225 228 205 198 198 189 183 177 188 308 321 318 321 317 334 349 354 360 9 16 28 33 31 33 44 57 67 76 77 81 87 91 89 87 82 92 94 93 92 91 87 88 88
234 223 214 206 204 204 204 206 218 252 288 294 298 294 308 324 337 350 356 2 16 22 26 33 40 49 57 67 75 84 88 92 87 88 78 94 99 97 97 96 94 93 93
229 221 221 219 217 216 216 215 221 238 254 271 282 286 297 311 318 329 339 346 4 12 14 25 34 35 36 36 52 68 84 86 90 89 77 83 100 105 105 104 102 99 96
240 236 233 226 223 222 224 221 219 227 230 246 267 282 291 301 305 311 324 333 346 358 3 15 25 22 19 19 21 31 54 80 89 93 83 87 102 108 117 117 116 110 101
270 252 243 230 224 224 226 224 221 224 226 238 251 274 287 301 306 309 318 323 333 347 356 4 9 9 9 8 5 6 43 40 79 99 87 107 119 120 132 140 130 119 109
285 269 247 233 228 227 227 226 222 221 226 234 245 258 279 302 305 304 309 308 320 336 344 350 1 8 10 19 2 353 3 25 18 65 102 121 135 136 143 156 147 134 125
291 270 260 235 228 231 230 227 224 221 224 230 237 248 275 297 302 300 299 301 311 324 334 344 355 3 2 6 345 330 325 347 14 46 98 109 140 150 145 159 164 152 142
294 280 261 237 229 230 231 228 225 224 225 227 234 245 260 277 291 293 292 294 302 314 322 335 348 3 9 9 356 337 305 37 88 103 115 108 133 161 153 156 160 157 158
294 275 258 240 231 229 230 232 229 227 227 229 234 239 248 264 277 282 288 287 293 305 313 324 342 352 5 17 6 358 357 326 55 20 63 139 144 162 164 161 166 170 180
291 272 256 242 235 231 230 232 233 230 230 232 234 239 246 254 262 273 283 276 272 286 300 321 332 352 8 7 354 350 1 25 347 357 322 219 198 183 180 172 177 177 184
287 271 257 240 236 233 231 233 233 229 232 233 234 239 241 245 252 262 263 261 261 267 276 301 317 345 2 354 337 348 331 330 352 28 19 6 210 183 183 190 190 183 184
280 270 255 244 243 237 235 236 232 230 235 234 233 235 237 239 244 250 246 244 249 251 260 289 312 325 337 340 331 330 330 330 335 358 11 49 93 162 187 195 198 198 196
284 264 246 245 244 237 237 238 234 231 234 235 233 232 234 234 237 243 237 236 234 232 244 269 295 309 319 323 306 297 305 293 323 351 143 112 103 188 185 167 167 176 186
283 262 254 247 239 236 237 240 237 231 231 233 231 230 232 233 234 236 234 230 223 222 232 248 269 289 301 305 298 278 272 257 241 104 133 163 185 188 177 166 153 146 152
283 270 258 249 240 239 239 241 241 232 232 230 228 228 230 231 232 231 229 226 221 220 223 230 239 251 269 259 244 227 244 78 163 188 138 153 160 155 164 166 152 146 146
287 276 263 246 241 241 240 239 240 233 231 230 229 227 227 228 227 225 223 220 217 217 218 222 223 232 242 224 207 191 179 141 149 124 136 151 164 160 157 166 164 158 155
287 280 261 247 250 249 244 241 244 235 234 233 230 227 225 223 221 221 220 218 215 216 218 220 224 226 219 211 206 190 168 157 148 117 121 135 143 145 148 159 161 164 167
285 281 263 253 253 253 247 245 240 234 232 231 229 225 223 221 221 218 219 218 218 219 218 218 217 211 211 209 206 194 179 170 160 144 131 126 130 134 141 159 163 165 168
285 280 266 255 253 252 249 244 239 232 229 229 228 225 223 221 218 215 215 217 220 221 218 217 215 213 215 212 206 197 193 190 181 166 158 152 147 145 152 168 176 179 185
281 277 265 254 251 251 249 242 241 236 232 227 227 223 220 218 217 216 216 216 220 220 217 216 217 213 216 214 208 208 207 204 199 193 192 194 194 196 188 188 193 189 201
280 274 264 256 250 249 246 241 243 236 231 228 221 219 221 219 217 217 216 217 219 219 217 219 215 214 216 216 216 215 216 215 217 216 214 217 217 217 214 215 226 225 232
279 268 261 259 254 250 244 241 239 233 227 223 219 219 220 218 218 218 218 218 220 222 220 220 218 220 220 220 224 226 226 224 225 228 228 229 228 228 228 231 240 246 248
278 265 259 258 257 251 245 240 233 228 224 222 221 218 217 218 219 218 219 220 221 221 221 221 222 224 226 227 231 234 235 234 234 235 238 237 237 239 238 238 244 252 257
Height
5887 5887 5887 5888 5889 5889 5890 5891 5891 5892 5892 5893 5893 5893 5893 5892 5892 5892 5891 5891 5890 5890 5889 5889 5889 5889 5889 5888 5888 5888 5888 5888 5887 5887 5887 5887 5886 5886 5886 5886 5886 5885 5885
5887 5887 5888 5888 5889 5890 5890 5891 5892 5893 5893 5893 5894 5894 5893 5893 5893 5892 5892 5891 5891 5890 5890 5890 5890 5889 5889 5889 5889 5889 5889 5888 5888 5888 5888 5888 5887 5887 5887 5887 5887 5887 5886
5887 5887 5888 5889 5889 5890 5891 5892 5893 5893 5894 5894 5894 5894 5894 5894 5894 5893 5893 5892 5891 5891 5891 5890 5890 5890 5890 5890 5890 5890 5889 5889 5889 5889 5889 5888 5888 5888 5888 5888 5888 5888 5888
5887 5887 5888 5889 5890 5891 5891 5892 5893 5894 5894 5895 5895 5895 5895 5895 5894 5894 5893 5893 5892 5892 5892 5891 5891 5891 5891 5890 5890 5890 5890 5890 5889 5889 5889 5889 5889 5889 5889 5889 5889 5889 5889
5887 5887 5888 5889 5890 5891 5892 5892 5893 5894 5894 5895 5895 5895 5895 5895 5895 5895 5894 5893 5893 5893 5892 5892 5891 5891 5891 5891 5891 5890 5890 5890 5890 5890 5890 5890 5889 5889 5890 5890 5890 5890 5890
5886 5887 5888 5889 5890 5891 5891 5892 5893 5894 5894 5895 5896 5896 5896 5896 5896 5895 5895 5894 5894 5893 5893 5892 5892 5891 5891 5891 5891 5891 5890 5890 5890 5890 5890 5890 5890 5890 5890 5890 5890 5891 5891
5885 5886 5887 5888 5889 5890 5891 5892 5893 5894 5894 5895 5896 5896 5896 5896 5896 5896 5895 5895 5894 5894 5893 5893 5892 5892 5892 5892 5891 5891 5891 5891 5891 5891 5891 5890 5890 5891 5891 5891 5891 5891 5891
5883 5885 5886 5887 5888 5889 5890 5891 5892 5893 5894 5895 5896 5896 5897 5897 5896 5896 5896 5895 5895 5894 5893 5893 5893 5893 5892 5892 5892 5891 5891 5891 5891 5891 5891 5891 5891 5891 5891 5891 5891 5892 5892
5883 5883 5885 5886 5887 5888 5889 5891 5892 5893 5894 5895 5896 5896 5896 5897 5897 5896 5896 5895 5895 5894 5894 5893 5893 5893 5893 5892 5892 5891 5891 5891 5891 5891 5891 5891 5891 5891 5891 5891 5891 5892 5892
5881 5882 5883 5884 5885 5887 5888 5890 5891 5892 5893 5894 5895 5896 5896 5896 5897 5896 5896 5895 5895 5895 5894 5894 5893 5893 5893 5892 5892 5891 5891 5891 5891 5891 5891 5891 5891 5891 5891 5891 5891 5892 5892
5880 5880 5881 5882 5884 5885 5887 5888 5890 5891 5892 5893 5894 5895 5895 5896 5896 5896 5896 5895 5895 5895 5894 5894 5893 5893 5893 5892 5892 5891 5891 5891 5891 5891 5891 5891 5891 5891 5891 5891 5891 5891 5892
5878 5878 5879 5880 5882 5883 5885 5886 5888 5890 5891 5892 5893 5894 5895 5895 5895 5895 5895 5895 5894 5894 5894 5893 5893 5893 5893 5893 5892 5892 5891 5891 5891 5891 5891 5891 5891 5891 5891 5891 5891 5891 5891
5876 5877 5877 5878 5880 5881 5883 5884 5886 5888 5889 5891 5892 5893 5893 5894 5894 5894 5894 5894 5894 5894 5894 5893 5893 5893 5893 5892 5892 5892 5891 5891 5891 5891 5891 5890 5890 5890 5890 5890 5891 5891 5891
5874 5874 5875 5875 5877 5879 5880 5882 5884 5885 5887 5889 5890 5891 5892 5892 5893 5893 5893 5893 5893 5893 5894 5893 5893 5893 5893 5892 5892 5892 5891 5891 5891 5890 5890 5890 5890 5890 5890 5890 5890 5890 5891
5871 5871 5872 5873 5874 5876 5878 5879 5881 5883 5885 5887 5888 5889 5890 5891 5892 5892 5892 5892 5892 5893 5893 5893 5893 5893 5892 5892 5891 5891 5891 5891 5890 5890 5890 5890 5890 5890 5890 5890 5890 5890 5890
5869 5869 5869 5870 5871 5873 5875 5877 5879 5880 5882 5884 5886 5887 5888 5889 5890 5891 5891 5891 5891 5892 5892 5893 5893 5892 5892 5891 5891 5891 5891 5891 5890 5890 5890 5890 5890 5890 5889 5889 5889 5889 5890
5866 5867 5867 5868 5869 5871 5873 5874 5876 5877 5879 5881 5883 5884 5886 5887 5888 5889 5890 5890 5890 5891 5892 5892 5892 5892 5892 5891 5891 5891 5891 5891 5890 5890 5890 5890 5890 5889 5889 5889 5889 5889 5890
5863 5864 5865 5866 5867 5868 5870 5872 5873 5875 5876 5878 5880 5881 5883 5885 5886 5887 5888 5889 5889 5890 5890 5891 5892 5892 5891 5891 5891 5891 5891 5890 5890 5890 5890 5890 5889 5889 5889 5889 5889 5889 5889
5860 5861 5862 5862 5864 5865 5867 5869 5870 5871 5873 5875 5876 5878 5880 5882 5884 5885 5886 5887 5888 5888 5889 5890 5891 5891 5891 5891 5891 5891 5891 5890 5890 5890 5890 5890 5889 5889 5889 5889 5889 5889 5889
5857 5858 5858 5859 5860 5861 5863 5865 5867 5868 5870 5871 5873 5875 5877 5879 5881 5883 5884 5885 5886 5887 5888 5889 5890 5890 5891 5890 5890 5891 5891 5891 5890 5890 5890 5889 5889 5889 5889 5888 5889 5889 5889
5855 5854 5855 5856 5857 5857 5859 5861 5863 5864 5866 5868 5870 5872 5874 5876 5878 5880 5882 5883 5885 5886 5887 5888 5888 5889 5890 5890 5890 5891 5891 5891 5890 5890 5890 5890 5889 5889 5889 5888 5888 5888 5889
5852 5852 5852 5852 5853 5854 5856 5857 5858 5860 5862 5865 5867 5869 5871 5873 5875 5877 5879 5881 5883 5884 5885 5886 5887 5888 5888 5889 5890 5890 5890 5891 5890 5890 5889 5889 5889 5889 5888 5888 5888 5888 5888
5849 5849 5848 5849 5849 5850 5851 5852 5854 5856 5859 5862 5863 5865 5867 5870 5872 5874 5876 5878 5880 5881 5883 5884 5885 5886 5887 5888 5888 5889 5889 5889 5889 5889 5889 5889 5889 5888 5888 5888 5888 5888 5887
5846 5845 5845 5846 5846 5846 5847 5848 5850 5852 5855 5857 5860 5862 5864 5866 5869 5871 5873 5875 5877 5879 5880 5881 5883 5884 5885 5886 5887 5887 5888 5888 5888 5888 5889 5888 5888 5888 5888 5887 5887 5887 5887
5843 5842 5842 5842 5842 5843 5843 5845 5846 5849 5851 5853 5856 5859 5861 5863 5866 5868 5870 5872 5875 5876 5878 5879 5881 5882 5883 5884 5885 5885 5886 5886 5886 5887 5887 5887 5887 5887 5887 5887 5886 5886 5886
5840 5840 5839 5839 5839 5839 5840 5841 5843 5845 5847 5849 5852 5855 5857 5860 5863 5865 5867 5869 5871 5873 5875 5877 5878 5879 5881 5882 5882 5883 5884 5884 5884 5884 5885 5885 5885 5885 5885 5885 5885 5884 5884